Tracking 29892 objects as of 21-Nov-2024
HD Live streaming from Space Station
objects crossing your sky now

STARLINK-3887

Track STARLINK-3887 now!
10-day predictions
STARLINK-3887 is classified as:


NORAD ID: 52484
Int'l Code: 2022-049AK
Perigee: 546.5 km
Apogee: 547.3 km
Inclination: 53.2 °
Period: 95.4 minutes
Semi major axis: 6917 km
RCS: Unknown
Launch date: May 6, 2022
Source: United States (US)
Launch site: AIR FORCE EASTERN TEST RANGE (AFETR)
Your satellite tracking list
Your tracking list is empty




NASA's NSSDC Master Catalog

Two Line Element Set (TLE):
1 52484U 22049AK  24325.61058121 -.00001810  00000-0 -95728-4 0  9997
2 52484  53.2174  27.3447 0000583  13.3261 346.7746 15.08832441140688
Source of the keplerian elements: AFSPC